Weather History for Budapest Ferihegy, Hungary

Change the Weather History Date:

Monday, August 26, 2013

  Actual Average Record
Temperature  
Mean Temperature 64 °F -  
Max Temperature 68 °F 69 °F 96 °F (2011)
Min Temperature 59 °F 50 °F 44 °F (1998)
Degree Days  
Heating Degree Days 2    
Growing Degree Days 14 (Base 50)    
Moisture  
Dew Point 62 °F    
Average Humidity 92    
Maximum Humidity 100    
Minimum Humidity 73    
Precipitation  
Precipitation 0.00 in - - ()
Sea Level Pressure  
Sea Level Pressure 29.89 in    
Wind  
Wind Speed 5 mph ()    
Max Wind Speed 10 mph    
Max Gust Speed -    
Visibility 5.5 miles    
Events Rain    
Averages and records for this station are not official NWS values.
T = Trace of Precipitation, MM = Missing Value Source: Averaged Metar Reports

Daily Weather History Graph

Daily Weather History Graph

Search for Another Location

Airport:

Trip Planner

Search our weather history database for the weather conditions in past years. The results will help you decide how hot, cold, wet, or windy it might be!

Date:

Astronomy

Aug. 26, 2013 Rise Set
Actual Time 5:53 AM CEST 7:34 PM CEST
Civil Twilight 5:21 AM CEST 8:07 PM CEST
Nautical Twilight 4:41 AM CEST 8:46 PM CEST
Astronomical Twilight 3:58 AM CEST 9:29 PM CEST
Moon 10:04 PM CEST (8/26) 12:05 PM CEST (8/26)
Length of Visible Light 14h 45m
Length of Day
13h 41m
Waning Gibbous, 69% of the Moon is Illuminated
Aug 26
Waning Gibbous
Aug 28
Last Quarter
Sep 5
New
Sep 12
First Quarter
Sep 19
Full

Hourly Weather History & Observations

Time (CEST) Temp. Dew Point Humidity Pressure Visibility Wind Dir Wind Speed Gust Speed Precip Events Conditions
12:00 AM 62.6 °F 60.8 °F 94% 29.89 in 6.2 mi Variable 3.5 mph - N/A   Mostly Cloudy
12:30 AM 62.6 °F 60.8 °F 94% 29.86 in 6.2 mi ESE 5.8 mph - N/A   Mostly Cloudy
1:00 AM 62.6 °F 60.8 °F 94% 29.89 in 6.2 mi ESE 4.6 mph - N/A   Mostly Cloudy
1:30 AM 62.6 °F 60.8 °F 94% 29.89 in - East 5.8 mph - N/A   Clear
2:00 AM 62.6 °F 60.8 °F 94% 29.86 in - East 5.8 mph - N/A   Clear
2:30 AM 62.6 °F 60.8 °F 94% 29.86 in - East 9.2 mph - N/A   Clear
3:00 AM 60.8 °F 59.0 °F 94% 29.86 in - SE 5.8 mph - N/A   Clear
3:30 AM 60.8 °F 60.8 °F 100% 29.86 in - Variable 2.3 mph - N/A   Clear
4:00 AM 59.0 °F 59.0 °F 100% 29.86 in 6.2 mi WSW 4.6 mph - N/A   Scattered Clouds
4:30 AM 60.8 °F 60.8 °F 100% 29.86 in 6.2 mi Variable 2.3 mph - N/A   Scattered Clouds
5:00 AM 60.8 °F 60.8 °F 100% 29.86 in 6.2 mi NE 5.8 mph - N/A   Mostly Cloudy
5:30 AM 60.8 °F 60.8 °F 100% 29.86 in 6.2 mi East 4.6 mph - N/A   Scattered Clouds
6:00 AM 60.8 °F 60.8 °F 100% 29.89 in 6.2 mi NE 6.9 mph - N/A   Scattered Clouds
6:30 AM 60.8 °F 59.0 °F 94% 29.89 in 6.2 mi NE 6.9 mph - N/A   Scattered Clouds
7:00 AM 62.6 °F 60.8 °F 94% 29.89 in 6.2 mi ENE 8.1 mph - N/A   Scattered Clouds
7:30 AM 62.6 °F 60.8 °F 94% 29.89 in 6.2 mi ENE 9.2 mph - N/A   Mostly Cloudy
8:00 AM 64.4 °F 60.8 °F 88% 29.89 in 6.2 mi East 8.1 mph - N/A   Partly Cloudy
8:30 AM 66.2 °F 59.0 °F 78% 29.89 in 6.2 mi East 8.1 mph - N/A   Partly Cloudy
9:00 AM 66.2 °F 59.0 °F 78% 29.89 in 6.2 mi East 6.9 mph - N/A   Scattered Clouds
9:30 AM 66.2 °F 60.8 °F 83% 29.89 in 6.2 mi ENE 8.1 mph - N/A   Mostly Cloudy
10:00 AM 68.0 °F 60.8 °F 78% 29.92 in 6.2 mi East 6.9 mph - N/A   Mostly Cloudy
10:30 AM 68.0 °F 60.8 °F 78% 29.89 in 6.2 mi ENE 6.9 mph - N/A   Mostly Cloudy
11:00 AM 68.0 °F 59.0 °F 73% 29.92 in 6.2 mi East 9.2 mph - N/A   Mostly Cloudy
11:30 AM 68.0 °F 59.0 °F 73% 29.92 in 6.2 mi ENE 8.1 mph - N/A   Mostly Cloudy
12:00 PM 68.0 °F 60.8 °F 78% 29.92 in 6.2 mi East 5.8 mph - N/A   Mostly Cloudy
12:30 PM 66.2 °F 60.8 °F 83% 29.92 in 3.7 mi SSE 8.1 mph - N/A Rain Light Rain
1:00 PM 64.4 °F 62.6 °F 94% 29.92 in 3.7 mi SSW 6.9 mph - N/A Rain Rain
1:30 PM 64.4 °F 62.6 °F 94% 29.89 in 5.0 mi NE 5.8 mph - N/A Rain Light Rain
2:00 PM 66.2 °F 64.4 °F 94% 29.89 in 5.0 mi NE 4.6 mph - N/A Rain Light Rain
2:30 PM 66.2 °F 64.4 °F 94% 29.89 in 5.0 mi Variable 3.5 mph - N/A   Mostly Cloudy
3:00 PM 68.0 °F 64.4 °F 88% 29.89 in 5.0 mi Variable 2.3 mph - N/A   Mostly Cloudy
3:30 PM 68.0 °F 62.6 °F 83% 29.89 in 6.2 mi ENE 5.8 mph - N/A   Mostly Cloudy
4:00 PM 68.0 °F 64.4 °F 88% 29.89 in 5.0 mi East 6.9 mph - N/A   Mostly Cloudy
4:30 PM 68.0 °F 62.6 °F 83% 29.89 in 5.0 mi East 8.1 mph - N/A   Mostly Cloudy
5:00 PM 66.2 °F 62.6 °F 88% 29.89 in 5.0 mi East 8.1 mph - N/A Rain Light Rain
5:30 PM 66.2 °F 64.4 °F 94% 29.89 in 2.5 mi Variable 3.5 mph - N/A Rain Light Rain Showers
6:00 PM 64.4 °F 64.4 °F 100% 29.89 in 2.5 mi North 6.9 mph - N/A Rain Light Rain
6:30 PM 66.2 °F 66.2 °F 100% 29.89 in 3.1 mi NE 4.6 mph - N/A   Mostly Cloudy
7:00 PM 66.2 °F 66.2 °F 100% 29.89 in 4.3 mi East 5.8 mph - N/A   Mostly Cloudy
7:30 PM 66.2 °F 66.2 °F 100% 29.89 in 3.7 mi NNW 4.6 mph - N/A   Mostly Cloudy
8:00 PM 66.2 °F 66.2 °F 100% 29.92 in 5.0 mi Variable 2.3 mph - N/A   Mostly Cloudy
8:30 PM 64.4 °F 64.4 °F 100% 29.92 in 6.2 mi NW 10.4 mph - N/A   Mostly Cloudy
9:00 PM 64.4 °F 64.4 °F 100% 29.92 in 6.2 mi East 4.6 mph - N/A   Mostly Cloudy
9:30 PM 66.2 °F 64.4 °F 94% 29.92 in 6.2 mi East 9.2 mph - N/A   Mostly Cloudy
10:00 PM 62.6 °F 60.8 °F 94% 29.92 in 6.2 mi NNE 8.1 mph - N/A Rain Light Rain Showers
10:30 PM 62.6 °F 60.8 °F 94% 29.92 in 6.2 mi NNE 4.6 mph - N/A   Mostly Cloudy
11:00 PM 62.6 °F 60.8 °F 94% 29.95 in 6.2 mi Variable 2.3 mph - N/A   Scattered Clouds
11:30 PM 60.8 °F 60.8 °F 100% 29.95 in 6.2 mi Variable 3.5 mph - N/A   Scattered Clouds